North Bennington, VT

10:45 AM EST on January 22, 2017 (GMT -0500)
Morse State

Weather History for KDDH - September, 2013

Change the Weather History Date:

Thursday, September 12, 2013

  Actual Average Record
Temperature  
Mean Temperature 74 °F 60 °F  
Max Temperature 82 °F 72 °F 84 °F (2005)
Min Temperature 65 °F 49 °F 35 °F (2006)
Degree Days  
Heating Degree Days 0 5  
Month to date heating degree days 53 49  
Since 1 July heating degree days 116 121  
Cooling Degree Days 9 1  
Month to date cooling degree days 44 16  
Year to date cooling degree days 503 304  
Growing Degree Days 23 (Base 50)    
Moisture  
Dew Point 66 °F    
Average Humidity 88    
Maximum Humidity 93    
Minimum Humidity 82    
Precipitation  
Precipitation 1.93 in 0.12 in 1.93 in (2013)
Month to date precipitation 3.06 1.28  
Year to date precipitation 34.78 28.82  
Sea Level Pressure  
Sea Level Pressure 29.79 in    
Wind  
Wind Speed 3 mph (South)    
Max Wind Speed 32 mph    
Max Gust Speed 54 mph    
Visibility 5 miles    
Events Fog , Rain , Thunderstorm    
T = Trace of Precipitation, MM = Missing Value Source: NWS Daily Summary

Daily Weather History Graph

Daily Weather History Graph

Search for Another Location

Airport or City:

Trip Planner

Search our weather history database for the weather conditions in past years. The results will help you decide how hot, cold, wet, or windy it might be!

Date:

Astronomy

Sep. 12, 2013 Rise Set
Actual Time 6:29 AM EDT 7:07 PM EDT
Civil Twilight 6:01 AM EDT 7:36 PM EDT
Nautical Twilight 5:27 AM EDT 8:10 PM EDT
Astronomical Twilight 4:52 AM EDT 8:44 PM EDT
Moon 2:04 PM EDT (9/12) 11:51 PM EDT (9/12)
Length of Visible Light 13h 35m
Length of Day
12h 38m
Waxing Crescent, 50% of the Moon is Illuminated
Sep 12
Waxing Crescent
Sep 12
First Quarter
Sep 19
Full
Sep 26
Last Quarter
Oct 4
New

Hourly Weather History & Observations

Time (EDT) Temp. Heat Index Dew Point Humidity Pressure Visibility Wind Dir Wind Speed Gust Speed Precip Events Conditions
12:54 AM 68.0 °F - 66.0 °F 93% 29.91 in 8.0 mi South 3.5 mph - N/A   Clear
1:54 AM 66.9 °F - 64.9 °F 93% 29.92 in 10.0 mi Calm Calm - N/A   Clear
2:54 AM 66.9 °F - 64.9 °F 93% 29.93 in 6.0 mi NNW 3.5 mph - N/A   Clear
3:54 AM 66.0 °F - 64.0 °F 93% 29.93 in 5.0 mi Calm Calm - N/A   Partly Cloudy
4:54 AM 66.0 °F - 64.0 °F 93% 29.91 in 9.0 mi Variable 3.5 mph - N/A   Scattered Clouds
5:14 AM 66.2 °F - 64.4 °F 94% 29.92 in 8.0 mi West 4.6 mph - N/A Thunderstorm Scattered Clouds
5:54 AM 68.0 °F - 64.9 °F 90% 29.93 in 9.0 mi Variable 3.5 mph - N/A Thunderstorm Thunderstorm
6:00 AM 66.2 °F - 64.4 °F 94% 29.94 in 1.5 mi Variable 4.6 mph - 0.13 in Rain , Thunderstorm Light Thunderstorms and Rain
6:12 AM 66.2 °F - 64.4 °F 94% 29.94 in 4.0 mi ESE 3.5 mph - 0.18 in Rain , Thunderstorm Light Thunderstorms and Rain
6:44 AM 68.0 °F - 64.4 °F 88% 29.93 in 10.0 mi Calm Calm - 0.18 in   Mostly Cloudy
6:54 AM 66.9 °F - 64.9 °F 93% 29.91 in 9.0 mi Calm Calm - 0.18 in   Mostly Cloudy
7:54 AM 68.0 °F - 66.0 °F 93% 29.90 in 1.2 mi Calm Calm - 0.07 in Rain Heavy Rain
8:08 AM 68.0 °F - 66.2 °F 94% 29.91 in 3.0 mi SE 3.5 mph - 0.03 in Rain Light Rain
8:50 AM 69.8 °F - 66.2 °F 88% 29.90 in 1.8 mi Calm Calm - 0.07 in Rain Light Rain
8:54 AM 69.1 °F - 66.9 °F 93% 29.88 in 1.0 mi East 3.5 mph - 0.11 in Rain Heavy Rain
9:06 AM 69.8 °F - 66.2 °F 88% 29.89 in 1.0 mi SE 5.8 mph - 0.16 in Rain , Thunderstorm Heavy Rain
9:19 AM 69.8 °F - 66.2 °F 88% 29.88 in 3.0 mi ESE 5.8 mph - 0.24 in Rain , Thunderstorm Light Thunderstorms and Rain
9:42 AM 71.6 °F - 68.0 °F 88% 29.87 in 5.0 mi Variable 3.5 mph - 0.24 in   Mostly Cloudy
9:54 AM 71.1 °F - 68.0 °F 90% 29.86 in 5.0 mi Variable 3.5 mph - 0.24 in   Scattered Clouds
10:54 AM 75.0 °F - 70.0 °F 84% 29.83 in 8.0 mi Calm Calm - N/A   Partly Cloudy
11:52 AM 78.8 °F - 69.8 °F 74% 29.84 in 10.0 mi Variable 4.6 mph - N/A Thunderstorm Scattered Clouds
11:54 AM 78.1 °F - 69.1 °F 74% 29.82 in 10.0 mi West 3.5 mph - N/A Thunderstorm Scattered Clouds
12:07 PM 78.8 °F - 69.8 °F 74% 29.83 in 10.0 mi SSW 3.5 mph - N/A   Mostly Cloudy
12:23 PM 78.8 °F - 69.8 °F 74% 29.83 in 9.0 mi Calm Calm - N/A Thunderstorm Thunderstorm
12:36 PM 78.8 °F - 69.8 °F 74% 29.82 in 9.0 mi South 5.8 mph - N/A   Mostly Cloudy
12:43 PM 80.6 °F 84.6 °F 71.6 °F 74% 29.81 in 9.0 mi SSW 3.5 mph - N/A Thunderstorm Mostly Cloudy
12:54 PM 81.0 °F 84.9 °F 71.1 °F 72% 29.79 in 8.0 mi Calm Calm - N/A Thunderstorm Mostly Cloudy
1:04 PM 82.4 °F 87.2 °F 71.6 °F 70% 29.80 in 8.0 mi SW 6.9 mph - N/A   Scattered Clouds
1:40 PM 80.6 °F 84.6 °F 71.6 °F 74% 29.78 in 7.0 mi SSW 4.6 mph - N/A   Mostly Cloudy
1:54 PM 81.0 °F 85.2 °F 72.0 °F 74% 29.75 in 7.0 mi Variable 4.6 mph - N/A   Overcast
2:23 PM 80.6 °F 84.6 °F 71.6 °F 74% 29.74 in 6.0 mi South 9.2 mph - N/A   Haze
2:30 PM 82.4 °F 87.2 °F 71.6 °F 70% 29.74 in 6.0 mi SSW 8.1 mph - N/A Thunderstorm Haze
2:51 PM 73.4 °F - 68.0 °F 83% 29.76 in 0.8 mi West 28.8 mph 54.1 mph 0.17 in Rain , Thunderstorm Light Thunderstorms and Rain
2:54 PM 69.1 °F - 64.0 °F 84% 29.77 in 0.2 mi NW 19.6 mph 54.1 mph 0.38 in Rain , Thunderstorm Heavy Thunderstorms and Rain
3:04 PM 68.0 °F - 62.6 °F 83% 29.79 in 1.0 mi SW 11.5 mph 24.2 mph N/A Rain , Thunderstorm Heavy Thunderstorms and Rain
3:13 PM 68.0 °F - 64.4 °F 88% 29.79 in 0.8 mi SSW 13.8 mph 27.6 mph N/A Rain , Thunderstorm Heavy Thunderstorms and Rain
3:20 PM 68.0 °F - 64.4 °F 88% 29.78 in 1.5 mi SSW 8.1 mph 19.6 mph N/A Rain , Thunderstorm Thunderstorms and Rain
3:33 PM 68.0 °F - 64.4 °F 88% 29.76 in 3.0 mi Calm Calm - N/A Rain , Thunderstorm Light Thunderstorms and Rain
3:48 PM 66.2 °F - 64.4 °F 94% 29.74 in 1.8 mi Variable 4.6 mph - N/A Rain , Thunderstorm Thunderstorms and Rain
3:49 PM 66.9 °F - 64.9 °F 93% 29.73 in 1.8 mi East 4.6 mph - N/A Rain , Thunderstorm Thunderstorms and Rain
3:59 PM 68.0 °F - 64.4 °F 88% 29.75 in 3.0 mi ESE 8.1 mph - 0.02 in Rain , Thunderstorm Light Rain
4:07 PM 68.0 °F - 64.4 °F 88% 29.74 in 9.0 mi SE 8.1 mph - 0.02 in   Overcast
4:25 PM 68.0 °F - 64.4 °F 88% 29.75 in 7.0 mi NW 10.4 mph 16.1 mph 0.02 in Rain , Thunderstorm Light Rain
4:28 PM 66.2 °F - 64.4 °F 94% 29.77 in 1.2 mi NW 9.2 mph 17.3 mph 0.16 in Rain , Thunderstorm Rain
4:35 PM 66.2 °F - 66.2 °F 100% 29.77 in 0.5 mi West 3.5 mph 17.3 mph 0.24 in Fog , Rain , Thunderstorm Heavy Rain
4:45 PM 68.0 °F - 66.2 °F 94% 29.76 in 1.2 mi South 8.1 mph - 0.30 in Rain , Thunderstorm Heavy Thunderstorms and Rain
4:54 PM 68.0 °F - 66.0 °F 93% 29.74 in 1.0 mi South 6.9 mph - 0.41 in Rain , Thunderstorm Heavy Thunderstorms and Rain
5:06 PM 68.0 °F - 64.4 °F 88% 29.74 in 2.5 mi SE 6.9 mph - 0.04 in Rain Light Rain
5:13 PM 68.0 °F - 64.4 °F 88% 29.73 in 6.0 mi ESE 8.1 mph - 0.04 in Rain Light Rain
5:54 PM 68.0 °F - 64.9 °F 90% 29.71 in 8.0 mi East 3.5 mph - 0.08 in Rain Light Rain
6:43 PM 68.0 °F - 64.4 °F 88% 29.73 in 5.0 mi SSW 4.6 mph - 0.01 in Rain , Thunderstorm Light Thunderstorms and Rain
6:54 PM 68.0 °F - 64.0 °F 87% 29.71 in 5.0 mi SSW 5.8 mph - 0.03 in Rain Light Rain
7:51 PM 66.2 °F - 64.4 °F 94% 29.73 in 5.0 mi Calm Calm - 0.02 in Rain Light Rain
7:54 PM 66.9 °F - 64.9 °F 93% 29.72 in 4.0 mi Calm Calm - 0.02 in Rain Light Rain
8:29 PM 66.2 °F - 64.4 °F 94% 29.73 in 4.0 mi Calm Calm - 0.02 in Rain Light Rain
8:54 PM 66.0 °F - 64.9 °F 96% 29.71 in 5.0 mi Calm Calm - 0.04 in Rain Light Rain
9:31 PM 66.2 °F - 64.4 °F 94% 29.72 in 2.5 mi Calm Calm - 0.01 in Rain Light Rain
9:41 PM 66.2 °F - 64.4 °F 94% 29.72 in 4.0 mi Calm Calm - 0.01 in Rain Light Rain
9:54 PM 66.0 °F - 64.0 °F 93% 29.70 in 2.5 mi Calm Calm - 0.02 in Rain Light Rain
10:07 PM 66.2 °F - 64.4 °F 94% 29.72 in 4.0 mi Calm Calm - 0.00 in Rain Light Rain
10:29 PM 66.2 °F - 64.4 °F 94% 29.70 in 2.0 mi Calm Calm - 0.00 in   Overcast
10:39 PM 66.2 °F - 64.4 °F 94% 29.71 in 4.0 mi Calm Calm - 0.00 in   Overcast
10:47 PM 66.2 °F - 64.4 °F 94% 29.71 in 5.0 mi Calm Calm - 0.00 in   Overcast
10:54 PM 66.0 °F - 64.0 °F 93% 29.69 in 6.0 mi Calm Calm - 0.00 in   Overcast
11:19 PM 64.4 °F - 64.4 °F 100% 29.70 in 4.0 mi Calm Calm - N/A   Overcast
11:31 PM 64.4 °F - 64.4 °F 100% 29.69 in 2.0 mi Calm Calm - N/A   Overcast
11:36 PM 64.4 °F - 64.4 °F 100% 29.69 in 1.8 mi Calm Calm - N/A   Mostly Cloudy
11:44 PM 64.4 °F - 64.4 °F 100% 29.69 in 2.5 mi Calm Calm - N/A   Mostly Cloudy
11:52 PM 64.4 °F - 64.4 °F 100% 29.69 in 6.0 mi Calm Calm - N/A   Overcast
11:54 PM 66.0 °F - 64.0 °F 93% 29.68 in 7.0 mi Calm Calm - N/A   Overcast